Time,TemperatureF,DewpointF,PressureIn,WindDirection,WindDirectionDegrees,WindSpeedMPH,WindSpeedGustMPH,Humidity,HourlyPrecipIn,Conditions,Clouds,dailyrainin,SoftwareType,DateUTC
2013-05-19 00:01:00,49.3,44.9,30.01,SSE,158,1.8,3.4,85,0.00,,,0.00,WUHU216HW,2013-05-19 06:01:00,
2013-05-19 00:06:00,49.3,44.9,30.01,SSE,158,1.6,2.5,85,0.00,,,0.00,WUHU216HW,2013-05-19 06:06:00,
2013-05-19 00:11:00,49.3,45.3,30.01,SSW,203,2.0,2.5,86,0.00,,,0.00,WUHU216HW,2013-05-19 06:11:00,
2013-05-19 00:16:00,49.1,45.1,30.01,SSW,203,0.9,2.5,86,0.00,,,0.00,WUHU216HW,2013-05-19 06:16:00,
2013-05-19 00:21:00,49.1,45.1,30.01,SSW,203,0.7,1.1,86,0.00,,,0.00,WUHU216HW,2013-05-19 06:21:00,
2013-05-19 00:26:00,49.1,45.1,30.01,SE,135,1.1,1.3,86,0.00,,,0.00,WUHU216HW,2013-05-19 06:26:00,
2013-05-19 00:31:00,49.1,45.1,30.01,SE,135,1.1,1.6,86,0.00,,,0.00,WUHU216HW,2013-05-19 06:31:00,
2013-05-19 00:36:00,49.1,45.1,30.01,SSE,158,1.1,1.8,86,0.00,,,0.00,WUHU216HW,2013-05-19 06:36:00,
2013-05-19 00:42:00,49.1,45.1,30.01,SSE,158,1.1,1.8,86,0.00,,,0.00,WUHU216HW,2013-05-19 06:42:00,
2013-05-19 00:47:00,49.1,45.4,30.01,SE,135,1.1,1.1,87,0.00,,,0.00,WUHU216HW,2013-05-19 06:47:00,
2013-05-19 00:52:00,49.1,45.4,30.01,SE,135,0.4,1.1,87,0.00,,,0.00,WUHU216HW,2013-05-19 06:52:00,
2013-05-19 00:57:00,49.1,45.4,30.01,SSE,158,0.7,1.1,87,0.00,,,0.00,WUHU216HW,2013-05-19 06:57:00,
2013-05-19 01:02:00,49.1,45.4,30.01,SSE,158,0.4,1.1,87,0.00,,,0.00,WUHU216HW,2013-05-19 07:02:00,
2013-05-19 01:07:00,49.1,45.4,30.01,SSE,158,1.1,1.3,87,0.00,,,0.00,WUHU216HW,2013-05-19 07:07:00,
2013-05-19 01:12:00,49.1,45.4,30.01,SSE,158,0.0,1.3,87,0.00,,,0.00,WUHU216HW,2013-05-19 07:12:00,
2013-05-19 01:17:00,49.0,45.3,30.01,SE,135,0.9,1.3,87,0.00,,,0.00,WUHU216HW,2013-05-19 07:17:00,
2013-05-19 01:22:00,49.0,45.3,30.01,SE,135,1.8,1.8,87,0.00,,,0.00,WUHU216HW,2013-05-19 07:22:00,
2013-05-19 01:27:00,49.0,45.5,30.01,SE,135,0.0,1.8,88,0.00,,,0.00,WUHU216HW,2013-05-19 07:27:00,
2013-05-19 01:32:00,49.0,45.5,30.01,SE,135,1.1,1.1,88,0.00,,,0.00,WUHU216HW,2013-05-19 07:32:00,
2013-05-19 01:37:00,49.0,45.5,30.01,SE,135,0.7,1.1,88,0.00,,,0.00,WUHU216HW,2013-05-19 07:37:00,
2013-05-19 01:42:00,49.0,45.5,30.02,SE,135,1.1,1.8,88,0.00,,,0.00,WUHU216HW,2013-05-19 07:42:00,
2013-05-19 01:47:00,49.0,45.5,30.02,SE,135,0.4,1.8,88,0.00,,,0.00,WUHU216HW,2013-05-19 07:47:00,
2013-05-19 01:52:00,49.0,45.5,30.01,SE,135,0.0,1.1,88,0.00,,,0.00,WUHU216HW,2013-05-19 07:52:00,
2013-05-19 01:57:00,49.0,45.5,30.02,SE,135,0.0,0.4,88,0.00,,,0.00,WUHU216HW,2013-05-19 07:57:00,
2013-05-19 02:02:00,49.0,45.5,30.02,SE,135,0.9,1.1,88,0.00,,,0.00,WUHU216HW,2013-05-19 08:02:00,
2013-05-19 02:07:00,49.0,45.5,30.02,SE,135,0.7,1.1,88,0.00,,,0.00,WUHU216HW,2013-05-19 08:07:00,
2013-05-19 02:12:00,49.0,45.5,30.02,SE,135,0.0,0.9,88,0.00,,,0.00,WUHU216HW,2013-05-19 08:12:00,
2013-05-19 02:17:00,48.8,45.4,30.02,SE,135,0.4,0.9,88,0.00,,,0.00,WUHU216HW,2013-05-19 08:17:00,
2013-05-19 02:22:00,49.0,45.5,30.02,ESE,113,0.7,1.1,88,0.00,,,0.00,WUHU216HW,2013-05-19 08:22:00,
2013-05-19 02:27:00,49.0,45.5,30.02,ESE,113,0.4,1.1,88,0.00,,,0.00,WUHU216HW,2013-05-19 08:27:00,
2013-05-19 02:32:00,49.0,45.5,30.02,ESE,113,0.9,0.9,88,0.00,,,0.00,WUHU216HW,2013-05-19 08:32:00,
2013-05-19 02:37:00,49.0,45.5,30.02,ESE,113,1.1,1.1,88,0.00,,,0.00,WUHU216HW,2013-05-19 08:37:00,
2013-05-19 02:42:00,49.0,45.5,30.02,ESE,113,0.4,1.1,88,0.00,,,0.00,WUHU216HW,2013-05-19 08:42:00,
2013-05-19 02:47:00,49.0,45.5,30.02,ESE,113,0.4,0.9,88,0.00,,,0.00,WUHU216HW,2013-05-19 08:47:00,
2013-05-19 02:52:00,49.0,45.5,30.02,ESE,113,0.7,0.9,88,0.00,,,0.00,WUHU216HW,2013-05-19 08:52:00,
2013-05-19 02:57:00,49.0,45.5,30.02,ESE,113,0.2,0.9,88,0.00,,,0.00,WUHU216HW,2013-05-19 08:57:00,
2013-05-19 03:02:00,48.8,45.4,30.02,ESE,113,0.2,0.7,88,0.00,,,0.00,WUHU216HW,2013-05-19 09:02:00,
2013-05-19 03:07:00,48.8,45.4,30.02,ESE,113,0.2,0.7,88,0.00,,,0.00,WUHU216HW,2013-05-19 09:07:00,
2013-05-19 03:12:00,48.8,45.4,30.02,ESE,113,0.0,0.4,88,0.00,,,0.00,WUHU216HW,2013-05-19 09:12:00,
2013-05-19 03:17:00,48.6,45.2,30.02,ESE,113,0.0,0.0,88,0.00,,,0.00,WUHU216HW,2013-05-19 09:17:00,
2013-05-19 03:22:00,48.6,45.2,30.02,ESE,113,0.0,0.0,88,0.00,,,0.00,WUHU216HW,2013-05-19 09:22:00,
2013-05-19 03:27:00,48.6,45.2,30.02,ESE,113,0.0,0.0,88,0.00,,,0.00,WUHU216HW,2013-05-19 09:27:00,
2013-05-19 03:32:00,48.6,45.2,30.02,ESE,113,0.0,0.0,88,0.00,,,0.00,WUHU216HW,2013-05-19 09:32:00,
2013-05-19 03:37:00,48.4,45.1,30.02,North,0,0.4,0.9,88,0.00,,,0.00,WUHU216HW,2013-05-19 09:37:00,
2013-05-19 03:42:00,48.4,45.1,30.02,North,0,0.4,0.9,88,0.00,,,0.00,WUHU216HW,2013-05-19 09:42:00,
2013-05-19 03:47:00,48.4,45.1,30.02,NNW,338,0.9,1.1,88,0.00,,,0.00,WUHU216HW,2013-05-19 09:47:00,
2013-05-19 03:52:00,48.4,45.4,30.02,NNW,338,0.9,1.1,89,0.00,,,0.00,WUHU216HW,2013-05-19 09:52:00,
2013-05-19 03:57:00,48.4,45.4,30.02,NNW,338,0.0,1.1,89,0.00,,,0.00,WUHU216HW,2013-05-19 09:57:00,
2013-05-19 04:02:00,48.2,45.5,30.02,NNW,338,0.0,0.7,90,0.00,,,0.00,WUHU216HW,2013-05-19 10:02:00,
2013-05-19 04:07:00,48.2,45.8,30.02,NNW,338,0.9,1.1,91,0.00,,,0.00,WUHU216HW,2013-05-19 10:07:00,
2013-05-19 04:12:00,48.2,45.5,30.03,North,0,0.4,1.3,90,0.00,,,0.00,WUHU216HW,2013-05-19 10:12:00,
2013-05-19 04:17:00,48.2,45.5,30.03,North,0,0.4,1.3,90,0.00,,,0.00,WUHU216HW,2013-05-19 10:17:00,
2013-05-19 04:22:00,48.2,45.5,30.03,North,0,0.4,0.9,90,0.00,,,0.00,WUHU216HW,2013-05-19 10:22:00,
2013-05-19 04:27:00,48.2,45.5,30.03,NE,45,2.5,2.7,90,0.00,,,0.00,WUHU216HW,2013-05-19 10:27:00,
2013-05-19 04:32:00,48.2,45.5,30.03,NNE,23,2.5,3.4,90,0.00,,,0.00,WUHU216HW,2013-05-19 10:32:00,
2013-05-19 04:37:00,48.2,45.5,30.03,North,0,1.6,3.4,90,0.00,,,0.00,WUHU216HW,2013-05-19 10:37:00,
2013-05-19 04:42:00,48.1,45.0,30.03,NNE,23,1.8,2.7,89,0.00,,,0.00,WUHU216HW,2013-05-19 10:42:00,
2013-05-19 04:47:00,48.1,45.0,30.03,NNE,23,3.4,5.4,89,0.00,,,0.00,WUHU216HW,2013-05-19 10:47:00,
2013-05-19 04:52:00,47.9,45.2,30.03,NNE,23,3.1,5.4,90,0.00,,,0.00,WUHU216HW,2013-05-19 10:52:00,
2013-05-19 04:57:00,47.9,44.8,30.03,NNE,23,2.5,3.4,89,0.00,,,0.00,WUHU216HW,2013-05-19 10:57:00,
2013-05-19 05:02:00,47.9,45.2,30.03,NNE,23,2.0,3.1,90,0.00,,,0.00,WUHU216HW,2013-05-19 11:02:00,
2013-05-19 05:07:00,47.9,45.2,30.03,NNE,23,1.1,2.5,90,0.00,,,0.00,WUHU216HW,2013-05-19 11:07:00,
2013-05-19 05:12:00,47.9,45.2,30.03,NNE,23,1.3,2.7,90,0.00,,,0.00,WUHU216HW,2013-05-19 11:12:00,
2013-05-19 05:17:00,47.9,44.8,30.03,NNE,23,1.3,2.7,89,0.00,,,0.00,WUHU216HW,2013-05-19 11:17:00,
2013-05-19 05:22:00,47.9,44.8,30.03,NE,45,2.7,3.4,89,0.00,,,0.00,WUHU216HW,2013-05-19 11:22:00,
2013-05-19 05:27:00,47.9,44.8,30.03,North,0,2.5,3.8,89,0.00,,,0.00,WUHU216HW,2013-05-19 11:27:00,
2013-05-19 05:32:00,47.9,44.8,30.03,North,0,1.3,3.8,89,0.00,,,0.00,WUHU216HW,2013-05-19 11:32:00,
2013-05-19 05:37:00,47.9,44.8,30.03,North,0,1.6,2.5,89,0.00,,,0.00,WUHU216HW,2013-05-19 11:37:00,
2013-05-19 05:42:00,47.9,44.8,30.03,North,0,2.2,3.4,89,0.00,,,0.00,WUHU216HW,2013-05-19 11:42:00,
2013-05-19 05:47:00,47.9,44.8,30.03,NNE,23,1.6,3.4,89,0.00,,,0.00,WUHU216HW,2013-05-19 11:47:00,
2013-05-19 05:52:00,47.9,44.8,30.03,North,0,0.9,2.9,89,0.00,,,0.00,WUHU216HW,2013-05-19 11:52:00,
2013-05-19 05:57:00,47.9,44.8,30.04,North,0,1.8,2.7,89,0.00,,,0.00,WUHU216HW,2013-05-19 11:57:00,
2013-05-19 06:02:00,47.9,44.6,30.03,NNE,23,0.7,2.7,88,0.00,,,0.00,WUHU216HW,2013-05-19 12:02:00,
2013-05-19 06:07:00,47.7,44.6,30.03,North,0,1.8,2.0,89,0.00,,,0.00,WUHU216HW,2013-05-19 12:07:00,
2013-05-19 06:12:00,47.7,44.4,30.04,North,0,1.1,1.8,88,0.00,,,0.00,WUHU216HW,2013-05-19 12:12:00,
2013-05-19 06:17:00,47.7,44.4,30.04,North,0,1.3,1.6,88,0.00,,,0.00,WUHU216HW,2013-05-19 12:17:00,
2013-05-19 06:22:00,47.7,44.4,30.04,North,0,1.1,1.8,88,0.00,,,0.00,WUHU216HW,2013-05-19 12:22:00,
2013-05-19 06:27:00,47.7,44.4,30.04,NNE,23,0.7,1.8,88,0.00,,,0.00,WUHU216HW,2013-05-19 12:27:00,
2013-05-19 06:32:00,47.7,44.4,30.04,NNE,23,2.7,4.5,88,0.00,,,0.00,WUHU216HW,2013-05-19 12:32:00,
2013-05-19 06:37:00,47.9,44.6,30.04,NNE,23,2.5,4.5,88,0.00,,,0.00,WUHU216HW,2013-05-19 12:37:00,
2013-05-19 06:42:00,47.9,44.6,30.04,North,0,1.8,4.0,88,0.00,,,0.00,WUHU216HW,2013-05-19 12:42:00,
2013-05-19 06:47:00,47.9,44.2,30.04,North,0,2.9,4.0,87,0.00,,,0.00,WUHU216HW,2013-05-19 12:47:00,
2013-05-19 06:52:00,47.9,44.2,30.04,North,0,3.6,3.6,87,0.00,,,0.00,WUHU216HW,2013-05-19 12:52:00,
2013-05-19 06:57:00,47.9,43.9,30.04,NNW,338,4.0,4.5,86,0.00,,,0.00,WUHU216HW,2013-05-19 12:57:00,
2013-05-19 07:02:00,47.9,43.9,30.04,NNE,23,2.9,5.1,86,0.00,,,0.00,WUHU216HW,2013-05-19 13:02:00,
2013-05-19 07:07:00,48.1,44.1,30.04,NNE,23,3.6,5.4,86,0.00,,,0.00,WUHU216HW,2013-05-19 13:07:00,
2013-05-19 07:12:00,48.1,44.1,30.05,North,0,3.6,5.4,86,0.00,,,0.00,WUHU216HW,2013-05-19 13:12:00,
2013-05-19 07:17:00,47.9,43.9,30.05,North,0,4.7,4.7,86,0.00,,,0.00,WUHU216HW,2013-05-19 13:17:00,
2013-05-19 07:22:00,47.9,43.9,30.05,North,0,3.1,4.7,86,0.00,,,0.00,WUHU216HW,2013-05-19 13:22:00,
2013-05-19 07:27:00,47.9,43.9,30.05,NNE,23,4.3,4.3,86,0.00,,,0.00,WUHU216HW,2013-05-19 13:27:00,
2013-05-19 07:32:00,48.1,44.1,30.05,North,0,3.4,4.3,86,0.00,,,0.00,WUHU216HW,2013-05-19 13:32:00,
2013-05-19 07:37:00,48.1,43.7,30.05,North,0,3.6,4.3,85,0.00,,,0.00,WUHU216HW,2013-05-19 13:37:00,
2013-05-19 07:42:00,48.2,44.3,30.05,NE,45,2.7,3.8,86,0.00,,,0.00,WUHU216HW,2013-05-19 13:42:00,
2013-05-19 07:47:00,48.2,43.9,30.05,North,0,4.9,4.9,85,0.00,,,0.00,WUHU216HW,2013-05-19 13:47:00,
2013-05-19 07:52:00,48.4,43.5,30.05,ENE,68,4.9,4.9,83,0.00,,,0.00,WUHU216HW,2013-05-19 13:52:00,
2013-05-19 07:57:00,48.4,43.7,30.05,NNE,23,5.4,6.7,84,0.00,,,0.00,WUHU216HW,2013-05-19 13:57:00,
2013-05-19 08:02:00,48.6,43.9,30.05,North,0,4.7,6.7,84,0.00,,,0.00,WUHU216HW,2013-05-19 14:02:00,
2013-05-19 08:07:00,48.6,43.9,30.05,North,0,4.0,5.8,84,0.00,,,0.00,WUHU216HW,2013-05-19 14:07:00,
2013-05-19 08:12:00,48.6,43.7,30.06,North,0,5.8,7.6,83,0.00,,,0.00,WUHU216HW,2013-05-19 14:12:00,
2013-05-19 08:17:00,48.6,43.7,30.06,North,0,4.9,7.6,83,0.00,,,0.00,WUHU216HW,2013-05-19 14:17:00,
2013-05-19 08:22:00,48.4,43.5,30.06,NNE,23,6.0,6.5,83,0.00,,,0.00,WUHU216HW,2013-05-19 14:22:00,
2013-05-19 08:27:00,48.4,43.7,30.06,NNE,23,5.4,6.5,84,0.00,,,0.00,WUHU216HW,2013-05-19 14:27:00,
2013-05-19 08:32:00,48.4,43.5,30.06,North,0,3.6,5.6,83,0.00,,,0.00,WUHU216HW,2013-05-19 14:32:00,
2013-05-19 08:37:00,48.4,43.5,30.06,NNE,23,2.0,5.8,83,0.00,,,0.00,WUHU216HW,2013-05-19 14:37:00,
2013-05-19 08:42:00,48.4,43.7,30.06,North,0,7.6,7.6,84,0.00,,,0.00,WUHU216HW,2013-05-19 14:42:00,
2013-05-19 08:47:00,48.4,43.5,30.06,North,0,4.3,7.6,83,0.00,,,0.00,WUHU216HW,2013-05-19 14:47:00,
2013-05-19 08:52:00,48.4,43.1,30.06,North,0,5.1,5.4,82,0.00,,,0.00,WUHU216HW,2013-05-19 14:52:00,
2013-05-19 08:57:00,48.6,43.7,30.06,NE,45,6.3,6.7,83,0.00,,,0.00,WUHU216HW,2013-05-19 14:57:00,
2013-05-19 09:02:00,48.6,43.3,30.06,North,0,3.8,6.9,82,0.00,,,0.00,WUHU216HW,2013-05-19 15:02:00,
2013-05-19 09:07:00,48.8,43.5,30.06,North,0,7.2,8.1,82,0.00,,,0.00,WUHU216HW,2013-05-19 15:07:00,
2013-05-19 09:12:00,49.0,43.7,30.06,North,0,5.1,8.1,82,0.00,,,0.00,WUHU216HW,2013-05-19 15:12:00,
2013-05-19 09:17:00,49.0,43.7,30.06,NNE,23,4.3,7.4,82,0.00,,,0.00,WUHU216HW,2013-05-19 15:17:00,
2013-05-19 09:22:00,49.0,43.7,30.06,North,0,6.7,9.6,82,0.00,,,0.00,WUHU216HW,2013-05-19 15:22:00,
2013-05-19 09:27:00,49.0,43.7,30.07,North,0,5.6,9.6,82,0.00,,,0.00,WUHU216HW,2013-05-19 15:27:00,
2013-05-19 09:32:00,49.0,43.4,30.06,NNE,23,7.6,8.7,81,0.00,,,0.00,WUHU216HW,2013-05-19 15:32:00,
2013-05-19 09:37:00,48.8,43.8,30.07,North,0,5.4,8.7,83,0.00,,,0.00,WUHU216HW,2013-05-19 15:37:00,
2013-05-19 09:42:00,48.6,43.3,30.06,NNW,338,6.5,8.3,82,0.00,,,0.00,WUHU216HW,2013-05-19 15:42:00,
2013-05-19 09:47:00,48.6,43.7,30.07,North,0,4.3,8.1,83,0.00,,,0.00,WUHU216HW,2013-05-19 15:47:00,
2013-05-19 09:52:00,48.6,43.3,30.07,NNW,338,4.0,9.2,82,0.00,,,0.00,WUHU216HW,2013-05-19 15:52:00,
2013-05-19 09:57:00,48.6,43.3,30.07,NNW,338,8.9,9.2,82,0.00,,,0.00,WUHU216HW,2013-05-19 15:57:00,
2013-05-19 10:02:00,48.8,42.8,30.07,North,0,8.5,11.9,80,0.00,,,0.00,WUHU216HW,2013-05-19 16:02:00,
2013-05-19 10:07:00,49.0,43.0,30.07,NNW,338,5.4,11.9,80,0.00,,,0.00,WUHU216HW,2013-05-19 16:07:00,
2013-05-19 10:12:00,49.1,42.5,30.07,North,0,8.1,13.4,78,0.00,,,0.00,WUHU216HW,2013-05-19 16:12:00,
2013-05-19 10:17:00,49.3,42.7,30.08,North,0,8.9,13.4,78,0.00,,,0.00,WUHU216HW,2013-05-19 16:17:00,
2013-05-19 10:22:00,49.3,42.0,30.08,North,0,6.0,12.8,76,0.00,,,0.00,WUHU216HW,2013-05-19 16:22:00,
2013-05-19 10:27:00,49.3,42.4,30.08,NNW,338,7.6,10.3,77,0.00,,,0.00,WUHU216HW,2013-05-19 16:27:00,
2013-05-19 10:32:00,49.3,42.0,30.08,NNW,338,8.3,9.6,76,0.00,,,0.00,WUHU216HW,2013-05-19 16:32:00,
2013-05-19 10:37:00,49.3,41.7,30.07,NNW,338,7.6,9.4,75,0.00,,,0.00,WUHU216HW,2013-05-19 16:37:00,
2013-05-19 10:42:00,49.3,42.4,30.08,NNW,338,6.9,9.4,77,0.00,,,0.00,WUHU216HW,2013-05-19 16:42:00,
2013-05-19 10:47:00,49.3,42.0,30.08,North,0,8.3,8.3,76,0.00,,,0.00,WUHU216HW,2013-05-19 16:47:00,
2013-05-19 10:53:00,49.3,42.4,30.08,North,0,9.4,9.4,77,0.00,,,0.00,WUHU216HW,2013-05-19 16:53:00,
2013-05-19 10:58:00,49.3,42.7,30.08,NNW,338,7.2,9.4,78,0.00,,,0.00,WUHU216HW,2013-05-19 16:58:00,
2013-05-19 11:03:00,49.1,42.8,30.08,NNW,338,5.6,8.5,79,0.00,,,0.00,WUHU216HW,2013-05-19 17:03:00,
2013-05-19 11:08:00,49.0,42.3,30.08,North,0,6.0,7.6,78,0.00,,,0.00,WUHU216HW,2013-05-19 17:08:00,
2013-05-19 11:13:00,49.0,42.3,30.08,NNW,338,8.5,13.0,78,0.00,,,0.00,WUHU216HW,2013-05-19 17:13:00,
2013-05-19 11:18:00,49.3,42.0,30.08,NW,315,4.9,13.0,76,0.00,,,0.00,WUHU216HW,2013-05-19 17:18:00,
2013-05-19 11:23:00,49.3,42.4,30.08,North,0,6.9,8.5,77,0.00,,,0.00,WUHU216HW,2013-05-19 17:23:00,
2013-05-19 11:28:00,49.7,42.4,30.08,NNW,338,6.9,8.5,76,0.00,,,0.00,WUHU216HW,2013-05-19 17:28:00,
2013-05-19 11:33:00,49.7,42.8,30.08,North,0,5.4,8.5,77,0.00,,,0.00,WUHU216HW,2013-05-19 17:33:00,
2013-05-19 11:38:00,49.7,42.8,30.08,North,0,7.8,9.8,77,0.00,,,0.00,WUHU216HW,2013-05-19 17:38:00,
2013-05-19 11:43:00,49.9,42.6,30.08,North,0,9.4,9.8,76,0.00,,,0.00,WUHU216HW,2013-05-19 17:43:00,
2013-05-19 11:48:00,50.0,43.1,30.08,North,0,9.2,9.4,77,0.00,,,0.00,WUHU216HW,2013-05-19 17:48:00,
2013-05-19 11:53:00,49.3,43.4,30.08,North,0,9.2,10.5,80,0.00,,,0.00,WUHU216HW,2013-05-19 17:53:00,
2013-05-19 11:58:00,49.0,43.7,30.09,North,0,8.1,10.5,82,0.00,,,0.00,WUHU216HW,2013-05-19 17:58:00,
2013-05-19 12:03:00,48.8,43.8,30.08,North,0,4.0,9.8,83,0.00,,,0.00,WUHU216HW,2013-05-19 18:03:00,
2013-05-19 12:08:00,48.8,43.5,30.09,North,0,8.7,9.8,82,0.00,,,0.00,WUHU216HW,2013-05-19 18:08:00,
2013-05-19 12:13:00,49.0,43.7,30.09,NNW,338,6.5,9.2,82,0.00,,,0.00,WUHU216HW,2013-05-19 18:13:00,
2013-05-19 12:18:00,49.0,44.0,30.09,NNW,338,4.5,9.2,83,0.00,,,0.00,WUHU216HW,2013-05-19 18:18:00,
2013-05-19 12:23:00,49.3,44.3,30.09,NNW,338,4.7,6.9,83,0.00,,,0.00,WUHU216HW,2013-05-19 18:23:00,
2013-05-19 12:28:00,49.3,44.3,30.09,NW,315,6.0,7.6,83,0.00,,,0.00,WUHU216HW,2013-05-19 18:28:00,
2013-05-19 12:33:00,49.3,43.7,30.09,NNW,338,5.4,9.4,81,0.00,,,0.00,WUHU216HW,2013-05-19 18:33:00,
2013-05-19 12:38:00,49.3,44.3,30.09,NW,315,10.3,10.3,83,0.00,,,0.00,WUHU216HW,2013-05-19 18:38:00,
2013-05-19 12:43:00,49.5,43.8,30.09,NNW,338,9.2,10.3,81,0.00,,,0.00,WUHU216HW,2013-05-19 18:43:00,
2013-05-19 12:49:00,49.3,43.7,30.09,NNW,338,5.1,9.2,81,0.00,,,0.00,WUHU216HW,2013-05-19 18:49:00,
2013-05-19 12:54:00,49.3,44.0,30.09,NNE,23,6.5,9.2,82,0.00,,,0.00,WUHU216HW,2013-05-19 18:54:00,
2013-05-19 12:59:00,49.3,44.0,30.09,NNW,338,8.3,8.3,82,0.00,,,0.00,WUHU216HW,2013-05-19 18:59:00,
2013-05-19 13:04:00,49.3,44.3,30.09,NNW,338,7.8,8.9,83,0.00,,,0.00,WUHU216HW,2013-05-19 19:04:00,
2013-05-19 13:09:00,49.3,43.7,30.09,North,0,7.6,8.9,81,0.00,,,0.00,WUHU216HW,2013-05-19 19:09:00,
2013-05-19 13:14:00,49.3,43.7,30.09,North,0,6.9,8.7,81,0.00,,,0.00,WUHU216HW,2013-05-19 19:14:00,
2013-05-19 13:19:00,49.3,44.0,30.09,North,0,6.7,11.0,82,0.00,,,0.00,WUHU216HW,2013-05-19 19:19:00,
2013-05-19 13:24:00,49.3,44.0,30.09,North,0,10.1,11.0,82,0.00,,,0.00,WUHU216HW,2013-05-19 19:24:00,
2013-05-19 13:29:00,49.3,44.0,30.09,North,0,6.5,10.1,82,0.00,,,0.00,WUHU216HW,2013-05-19 19:29:00,
2013-05-19 13:34:00,49.3,44.0,30.09,North,0,7.4,8.1,82,0.00,,,0.00,WUHU216HW,2013-05-19 19:34:00,
2013-05-19 13:39:00,49.5,44.5,30.09,North,0,5.6,8.9,83,0.00,,,0.00,WUHU216HW,2013-05-19 19:39:00,
2013-05-19 13:44:00,49.9,44.6,30.09,NNW,338,4.5,8.9,82,0.00,,,0.00,WUHU216HW,2013-05-19 19:44:00,
2013-05-19 13:49:00,50.0,44.7,30.09,NNW,338,10.1,10.1,82,0.00,,,0.00,WUHU216HW,2013-05-19 19:49:00,
2013-05-19 13:54:00,50.4,44.5,30.09,North,0,6.5,10.1,80,0.00,,,0.00,WUHU216HW,2013-05-19 19:54:00,
2013-05-19 13:59:00,50.4,44.1,30.09,NNW,338,5.4,8.5,79,0.00,,,0.00,WUHU216HW,2013-05-19 19:59:00,
2013-05-19 14:04:00,50.4,43.7,30.09,North,0,9.2,9.2,78,0.00,,,0.00,WUHU216HW,2013-05-19 20:04:00,
2013-05-19 14:09:00,50.6,43.9,30.09,NNW,338,10.1,10.1,78,0.00,,,0.00,WUHU216HW,2013-05-19 20:09:00,
2013-05-19 14:14:00,50.8,44.1,30.09,North,0,5.6,10.1,78,0.00,,,0.00,WUHU216HW,2013-05-19 20:14:00,
2013-05-19 14:19:00,50.8,44.1,30.09,North,0,6.9,10.1,78,0.00,,,0.00,WUHU216HW,2013-05-19 20:19:00,
2013-05-19 14:24:00,50.8,43.5,30.09,North,0,5.4,7.2,76,0.00,,,0.00,WUHU216HW,2013-05-19 20:24:00,
2013-05-19 14:29:00,50.9,44.3,30.09,North,0,8.5,10.3,78,0.00,,,0.00,WUHU216HW,2013-05-19 20:29:00,
2013-05-19 14:34:00,50.8,43.5,30.09,NNW,338,4.5,10.3,76,0.00,,,0.00,WUHU216HW,2013-05-19 20:34:00,
2013-05-19 14:39:00,50.8,43.8,30.09,NNW,338,5.6,9.6,77,0.00,,,0.00,WUHU216HW,2013-05-19 20:39:00,
2013-05-19 14:44:00,50.8,44.1,30.10,North,0,6.3,9.6,78,0.00,,,0.00,WUHU216HW,2013-05-19 20:44:00,
2013-05-19 14:49:00,50.9,44.0,30.10,North,0,7.2,9.4,77,0.00,,,0.00,WUHU216HW,2013-05-19 20:49:00,
2013-05-19 14:54:00,50.9,44.0,30.10,NNW,338,8.5,9.2,77,0.00,,,0.00,WUHU216HW,2013-05-19 20:54:00,
2013-05-19 14:59:00,51.1,43.8,30.10,NNW,338,5.6,9.2,76,0.00,,,0.00,WUHU216HW,2013-05-19 20:59:00,
2013-05-19 15:04:00,51.3,44.0,30.10,NNW,338,5.1,8.9,76,0.00,,,0.00,WUHU216HW,2013-05-19 21:04:00,
2013-05-19 15:09:00,51.3,43.7,30.10,North,0,9.2,9.2,75,0.00,,,0.00,WUHU216HW,2013-05-19 21:09:00,
2013-05-19 15:14:00,51.1,44.2,30.10,NNW,338,4.5,9.2,77,0.00,,,0.00,WUHU216HW,2013-05-19 21:14:00,
2013-05-19 15:19:00,50.9,44.3,30.10,NNW,338,4.3,6.3,78,0.00,,,0.00,WUHU216HW,2013-05-19 21:19:00,
2013-05-19 15:25:00,51.1,44.2,30.10,NW,315,7.6,9.2,77,0.00,,,0.00,WUHU216HW,2013-05-19 21:25:00,
2013-05-19 15:30:00,51.1,44.8,30.11,NW,315,4.5,9.2,79,0.00,,,0.00,WUHU216HW,2013-05-19 21:30:00,
2013-05-19 15:35:00,50.9,44.3,30.10,NW,315,4.7,6.7,78,0.00,,,0.00,WUHU216HW,2013-05-19 21:35:00,
2013-05-19 15:40:00,51.1,45.2,30.11,WNW,293,3.6,6.7,80,0.00,,,0.00,WUHU216HW,2013-05-19 21:40:00,
2013-05-19 15:45:00,51.1,45.5,30.11,WNW,293,3.4,4.0,81,0.00,,,0.00,WUHU216HW,2013-05-19 21:45:00,
2013-05-19 15:50:00,51.3,45.6,30.11,West,270,3.6,4.0,81,0.00,,,0.00,WUHU216HW,2013-05-19 21:50:00,
2013-05-19 15:55:00,51.5,45.5,30.11,WSW,248,4.7,4.7,80,0.00,,,0.00,WUHU216HW,2013-05-19 21:55:00,
2013-05-19 16:00:00,51.5,45.5,30.11,WSW,248,4.5,4.7,80,0.00,,,0.00,WUHU216HW,2013-05-19 22:00:00,
2013-05-19 16:05:00,51.5,45.5,30.11,SW,225,3.4,5.1,80,0.00,,,0.00,WUHU216HW,2013-05-19 22:05:00,
2013-05-19 16:10:00,51.7,46.0,30.11,West,270,3.4,5.1,81,0.00,,,0.00,WUHU216HW,2013-05-19 22:10:00,
2013-05-19 16:15:00,51.8,45.9,30.11,West,270,3.6,4.9,80,0.00,,,0.00,WUHU216HW,2013-05-19 22:15:00,
2013-05-19 16:21:00,51.7,45.0,30.11,WSW,248,2.5,4.9,78,0.00,,,0.00,WUHU216HW,2013-05-19 22:21:00,
2013-05-19 16:26:00,51.7,45.0,30.11,WSW,248,5.1,5.1,78,0.00,,,0.00,WUHU216HW,2013-05-19 22:26:00,
2013-05-19 16:31:00,51.8,45.5,30.11,West,270,3.1,5.1,79,0.00,,,0.00,WUHU216HW,2013-05-19 22:31:00,
2013-05-19 16:36:00,52.2,45.9,30.11,WSW,248,3.6,3.6,79,0.00,,,0.00,WUHU216HW,2013-05-19 22:36:00,
2013-05-19 16:41:00,52.2,45.5,30.11,WSW,248,3.1,5.1,78,0.00,,,0.00,WUHU216HW,2013-05-19 22:41:00,
2013-05-19 16:46:00,52.0,45.4,30.11,West,270,3.4,5.1,78,0.00,,,0.00,WUHU216HW,2013-05-19 22:46:00,
2013-05-19 16:51:00,52.0,45.4,30.11,WSW,248,3.1,3.8,78,0.00,,,0.00,WUHU216HW,2013-05-19 22:51:00,
2013-05-19 16:56:00,52.2,45.5,30.11,West,270,3.4,4.0,78,0.00,,,0.00,WUHU216HW,2013-05-19 22:56:00,
2013-05-19 17:01:00,52.2,45.5,30.12,WSW,248,2.5,4.0,78,0.00,,,0.00,WUHU216HW,2013-05-19 23:01:00,
2013-05-19 17:06:00,52.2,45.9,30.11,WSW,248,2.9,3.6,79,0.00,,,0.00,WUHU216HW,2013-05-19 23:06:00,
2013-05-19 17:11:00,52.2,45.5,30.11,WSW,248,3.1,3.6,78,0.00,,,0.00,WUHU216HW,2013-05-19 23:11:00,
2013-05-19 17:16:00,52.0,45.4,30.11,West,270,0.9,3.6,78,0.00,,,0.00,WUHU216HW,2013-05-19 23:16:00,
2013-05-19 17:21:00,51.8,45.9,30.11,NW,315,1.8,3.6,80,0.00,,,0.00,WUHU216HW,2013-05-19 23:21:00,
2013-05-19 17:26:00,51.8,45.9,30.11,WNW,293,1.8,3.6,80,0.00,,,0.00,WUHU216HW,2013-05-19 23:26:00,
2013-05-19 17:31:00,51.7,45.7,30.11,West,270,1.3,2.5,80,0.00,,,0.00,WUHU216HW,2013-05-19 23:31:00,
2013-05-19 17:36:00,51.7,46.0,30.11,WNW,293,1.8,2.5,81,0.00,,,0.00,WUHU216HW,2013-05-19 23:36:00,
2013-05-19 17:41:00,51.7,46.0,30.11,West,270,0.9,2.0,81,0.00,,,0.00,WUHU216HW,2013-05-19 23:41:00,
2013-05-19 17:46:00,51.7,45.7,30.11,WNW,293,0.4,2.0,80,0.00,,,0.00,WUHU216HW,2013-05-19 23:46:00,
2013-05-19 17:51:00,51.7,46.0,30.11,West,270,1.3,1.3,81,0.00,,,0.00,WUHU216HW,2013-05-19 23:51:00,
2013-05-19 17:56:00,51.7,46.0,30.11,NW,315,0.7,1.3,81,0.00,,,0.00,WUHU216HW,2013-05-19 23:56:00,
2013-05-19 18:01:00,51.5,45.8,30.11,WNW,293,1.3,2.2,81,0.00,,,0.00,WUHU216HW,2013-05-20 00:01:00,
2013-05-19 18:06:00,51.5,46.2,30.11,West,270,1.6,2.2,82,0.00,,,0.00,WUHU216HW,2013-05-20 00:06:00,
2013-05-19 18:11:00,51.5,45.8,30.11,WNW,293,0.0,1.8,81,0.00,,,0.00,WUHU216HW,2013-05-20 00:11:00,
2013-05-19 18:16:00,51.5,46.2,30.11,NW,315,1.1,1.8,82,0.00,,,0.00,WUHU216HW,2013-05-20 00:16:00,
2013-05-19 18:21:00,51.5,45.8,30.11,NW,315,0.0,1.1,81,0.00,,,0.00,WUHU216HW,2013-05-20 00:21:00,
2013-05-19 18:26:00,51.5,45.8,30.11,NW,315,0.0,1.1,81,0.00,,,0.00,WUHU216HW,2013-05-20 00:26:00,
2013-05-19 18:31:00,51.8,46.5,30.11,NW,315,0.0,0.0,82,0.00,,,0.00,WUHU216HW,2013-05-20 00:31:00,
2013-05-19 18:36:00,51.8,46.5,30.11,NW,315,0.0,0.0,82,0.00,,,0.00,WUHU216HW,2013-05-20 00:36:00,
2013-05-19 18:41:00,52.2,46.9,30.11,NNE,23,0.7,1.1,82,0.00,,,0.00,WUHU216HW,2013-05-20 00:41:00,
2013-05-19 18:46:00,52.4,47.1,30.11,North,0,1.8,1.8,82,0.00,,,0.00,WUHU216HW,2013-05-20 00:46:00,
2013-05-19 18:51:00,52.2,46.9,30.11,North,0,2.0,2.0,82,0.00,,,0.00,WUHU216HW,2013-05-20 00:51:00,
2013-05-19 18:56:00,52.2,46.5,30.11,North,0,1.8,3.1,81,0.00,,,0.00,WUHU216HW,2013-05-20 00:56:00,
2013-05-19 19:01:00,52.2,46.9,30.11,NW,315,3.1,3.1,82,0.00,,,0.00,WUHU216HW,2013-05-20 01:01:00,
2013-05-19 19:07:00,52.0,46.4,30.12,NNW,338,6.7,8.5,81,0.00,,,0.00,WUHU216HW,2013-05-20 01:07:00,
2013-05-19 19:12:00,52.0,46.4,30.12,North,0,5.4,8.5,81,0.00,,,0.00,WUHU216HW,2013-05-20 01:12:00,
2013-05-19 19:17:00,51.7,45.7,30.12,NNW,338,7.6,8.5,80,0.00,,,0.00,WUHU216HW,2013-05-20 01:17:00,
2013-05-19 19:22:00,51.5,45.8,30.11,NNW,338,6.3,11.2,81,0.00,,,0.00,WUHU216HW,2013-05-20 01:22:00,
2013-05-19 19:27:00,51.3,45.4,30.11,NNW,338,6.7,11.2,80,0.00,,,0.00,WUHU216HW,2013-05-20 01:27:00,
2013-05-19 19:32:00,51.3,46.0,30.11,North,0,4.7,6.7,82,0.00,,,0.00,WUHU216HW,2013-05-20 01:32:00,
2013-05-19 19:37:00,50.9,45.6,30.11,NNW,338,11.6,11.6,82,0.00,,,0.00,WUHU216HW,2013-05-20 01:37:00,
2013-05-19 19:42:00,50.8,45.7,30.11,NNW,338,4.9,11.6,83,0.00,,,0.00,WUHU216HW,2013-05-20 01:42:00,
2013-05-19 19:47:00,50.6,45.9,30.11,NNW,338,3.6,6.9,84,0.00,,,0.00,WUHU216HW,2013-05-20 01:47:00,
2013-05-19 19:52:00,50.4,45.1,30.11,NNW,338,5.6,7.4,82,0.00,,,0.00,WUHU216HW,2013-05-20 01:52:00,
2013-05-19 19:57:00,50.4,45.1,30.11,NNW,338,6.9,7.4,82,0.00,,,0.00,WUHU216HW,2013-05-20 01:57:00,
2013-05-19 20:02:00,50.6,45.3,30.11,North,0,4.5,6.9,82,0.00,,,0.00,WUHU216HW,2013-05-20 02:02:00,
2013-05-19 20:07:00,50.6,44.9,30.11,NNW,338,4.3,7.2,81,0.00,,,0.00,WUHU216HW,2013-05-20 02:07:00,
2013-05-19 20:12:00,50.6,44.9,30.11,NNW,338,4.7,7.2,81,0.00,,,0.00,WUHU216HW,2013-05-20 02:12:00,
2013-05-19 20:17:00,50.6,44.6,30.11,NNW,338,4.9,6.7,80,0.00,,,0.00,WUHU216HW,2013-05-20 02:17:00,
2013-05-19 20:22:00,50.8,44.8,30.12,NNW,338,3.1,6.7,80,0.00,,,0.00,WUHU216HW,2013-05-20 02:22:00,
2013-05-19 20:27:00,50.8,44.8,30.12,NNW,338,6.9,6.9,80,0.00,,,0.00,WUHU216HW,2013-05-20 02:27:00,
2013-05-19 20:32:00,50.9,44.6,30.12,NNW,338,4.0,9.6,79,0.00,,,0.00,WUHU216HW,2013-05-20 02:32:00,
2013-05-19 20:37:00,51.1,44.8,30.12,NNW,338,5.4,9.6,79,0.00,,,0.00,WUHU216HW,2013-05-20 02:37:00,
2013-05-19 20:42:00,51.1,44.8,30.12,North,0,3.6,9.4,79,0.00,,,0.00,WUHU216HW,2013-05-20 02:42:00,
2013-05-19 20:47:00,51.1,44.8,30.12,North,0,4.0,10.5,79,0.00,,,0.00,WUHU216HW,2013-05-20 02:47:00,
2013-05-19 20:52:00,50.8,44.8,30.12,North,0,5.8,10.5,80,0.00,,,0.00,WUHU216HW,2013-05-20 02:52:00,
2013-05-19 20:57:00,50.8,45.1,30.12,NNE,23,4.5,7.6,81,0.00,,,0.00,WUHU216HW,2013-05-20 02:57:00,
2013-05-19 21:03:00,50.6,45.3,30.12,NNE,23,5.1,7.6,82,0.00,,,0.00,WUHU216HW,2013-05-20 03:03:00,
2013-05-19 21:08:00,50.4,45.1,30.12,NNE,23,2.7,6.3,82,0.00,,,0.00,WUHU216HW,2013-05-20 03:08:00,
2013-05-19 21:13:00,50.4,45.4,30.12,NNE,23,5.1,6.3,83,0.00,,,0.00,WUHU216HW,2013-05-20 03:13:00,
2013-05-19 21:18:00,50.2,45.2,30.12,NNE,23,6.9,6.9,83,0.00,,,0.00,WUHU216HW,2013-05-20 03:18:00,
2013-05-19 21:23:00,50.4,45.4,30.12,NNE,23,2.5,9.2,83,0.00,,,0.00,WUHU216HW,2013-05-20 03:23:00,
2013-05-19 21:28:00,50.2,45.2,30.12,NNE,23,4.0,9.2,83,0.00,,,0.00,WUHU216HW,2013-05-20 03:28:00,
2013-05-19 21:33:00,50.2,45.2,30.12,NNE,23,5.8,6.5,83,0.00,,,0.00,WUHU216HW,2013-05-20 03:33:00,
2013-05-19 21:38:00,50.2,45.6,30.12,NNE,23,4.0,7.4,84,0.00,,,0.00,WUHU216HW,2013-05-20 03:38:00,
2013-05-19 21:43:00,50.2,45.2,30.12,North,0,6.7,7.4,83,0.00,,,0.00,WUHU216HW,2013-05-20 03:43:00,
2013-05-19 21:48:00,50.4,45.1,30.12,North,0,5.8,9.6,82,0.00,,,0.00,WUHU216HW,2013-05-20 03:48:00,
2013-05-19 21:53:00,50.4,45.7,30.13,North,0,3.8,9.6,84,0.00,,,0.00,WUHU216HW,2013-05-20 03:53:00,
2013-05-19 21:58:00,50.2,45.8,30.13,NNE,23,4.5,8.9,85,0.00,,,0.00,WUHU216HW,2013-05-20 03:58:00,
2013-05-19 22:01:00,50.0,45.6,30.12,North,0,8.9,8.9,85,0.00,,,0.00,WUHU216HW,2013-05-20 04:01:00,
2013-05-19 22:06:00,50.0,45.4,30.13,NNE,23,7.6,8.9,84,0.00,,,0.00,WUHU216HW,2013-05-20 04:06:00,
2013-05-19 22:11:00,50.0,45.6,30.13,NE,45,4.7,8.1,85,0.00,,,0.00,WUHU216HW,2013-05-20 04:11:00,
2013-05-19 22:16:00,50.0,45.6,30.13,NNE,23,4.0,8.1,85,0.00,,,0.00,WUHU216HW,2013-05-20 04:16:00,
2013-05-19 22:21:00,49.9,45.8,30.13,NNE,23,4.7,8.1,86,0.00,,,0.00,WUHU216HW,2013-05-20 04:21:00,
2013-05-19 22:26:00,49.9,45.8,30.13,NNE,23,5.1,5.8,86,0.00,,,0.00,WUHU216HW,2013-05-20 04:26:00,
2013-05-19 22:31:00,49.9,45.8,30.13,NNE,23,3.4,5.4,86,0.00,,,0.00,WUHU216HW,2013-05-20 04:31:00,
2013-05-19 22:36:00,49.9,45.8,30.13,NE,45,4.7,6.3,86,0.00,,,0.00,WUHU216HW,2013-05-20 04:36:00,
2013-05-19 22:41:00,50.0,45.9,30.13,ENE,68,4.0,6.3,86,0.00,,,0.00,WUHU216HW,2013-05-20 04:41:00,
2013-05-19 22:46:00,50.0,45.6,30.13,North,0,2.5,4.7,85,0.00,,,0.00,WUHU216HW,2013-05-20 04:46:00,
2013-05-19 22:51:00,50.0,45.6,30.13,NNE,23,3.1,4.7,85,0.00,,,0.00,WUHU216HW,2013-05-20 04:51:00,
2013-05-19 22:56:00,50.0,45.6,30.13,North,0,4.7,8.1,85,0.00,,,0.00,WUHU216HW,2013-05-20 04:56:00,
2013-05-19 23:01:00,50.0,45.4,30.13,NW,315,5.6,8.1,84,0.00,,,0.00,WUHU216HW,2013-05-20 05:01:00,
2013-05-19 23:06:00,50.0,45.4,30.13,NNW,338,2.9,6.9,84,0.00,,,0.00,WUHU216HW,2013-05-20 05:06:00,
2013-05-19 23:11:00,50.0,45.4,30.12,North,0,6.9,6.9,84,0.00,,,0.00,WUHU216HW,2013-05-20 05:11:00,
2013-05-19 23:16:00,50.2,45.6,30.13,NNW,338,6.0,6.9,84,0.00,,,0.00,WUHU216HW,2013-05-20 05:16:00,
2013-05-19 23:21:00,50.4,45.4,30.13,North,0,8.5,8.9,83,0.00,,,0.00,WUHU216HW,2013-05-20 05:21:00,
2013-05-19 23:26:00,50.2,45.2,30.13,NNE,23,4.0,8.9,83,0.00,,,0.00,WUHU216HW,2013-05-20 05:26:00,
2013-05-19 23:31:00,50.2,45.6,30.13,North,0,3.6,8.5,84,0.00,,,0.00,WUHU216HW,2013-05-20 05:31:00,
2013-05-19 23:36:00,50.2,45.6,30.13,North,0,12.8,12.8,84,0.00,,,0.00,WUHU216HW,2013-05-20 05:36:00,
2013-05-19 23:41:00,50.2,45.2,30.13,NNW,338,5.4,12.8,83,0.00,,,0.00,WUHU216HW,2013-05-20 05:41:00,
2013-05-19 23:46:00,50.2,45.2,30.13,North,0,4.9,7.2,83,0.00,,,0.00,WUHU216HW,2013-05-20 05:46:00,
2013-05-19 23:51:00,50.2,45.2,30.13,North,0,6.3,7.2,83,0.00,,,0.00,WUHU216HW,2013-05-20 05:51:00,
2013-05-19 23:56:00,50.2,45.6,30.13,NNE,23,2.5,8.1,84,0.00,,,0.00,WUHU216HW,2013-05-20 05:56:00,